TimeMDT,TemperatureF,Dew PointF,Humidity,Sea Level PressureIn,VisibilityMPH,Wind Direction,Wind SpeedMPH,Gust SpeedMPH,PrecipitationIn,Events,Conditions,WindDirDegrees,DateUTC
12:23 AM,55.4,55.4,100,30.31,6.0,SSE,9.2,-,0.02,Rain,Light Rain,160,2013-09-13 06:23:00
12:45 AM,55.4,55.4,100,30.30,5.0,SSE,13.8,-,0.02,Rain,Light Rain,160,2013-09-13 06:45:00
12:53 AM,55.9,54.0,93,30.06,3.0,South,15.0,-,0.04,Rain,Rain,170,2013-09-13 06:53:00
1:22 AM,55.4,53.6,94,30.29,7.0,SSE,18.4,-,0.01,Rain,Light Rain,160,2013-09-13 07:22:00
1:53 AM,55.0,54.0,96,30.04,6.0,SSE,16.1,21.9,0.01,Rain,Light Rain,160,2013-09-13 07:53:00
1:56 AM,55.4,53.6,94,30.28,6.0,SSE,17.3,21.9,0.01,Rain,Light Rain,160,2013-09-13 07:56:00
2:53 AM,55.0,53.1,93,30.02,8.0,SSE,16.1,-,0.03,Rain,Light Rain,150,2013-09-13 08:53:00
3:04 AM,55.4,53.6,94,30.26,7.0,SSE,20.7,26.5,0.00,Rain,Light Rain,150,2013-09-13 09:04:00
3:53 AM,55.0,53.1,93,30.01,10.0,SSE,18.4,-,0.00,,Overcast,150,2013-09-13 09:53:00
4:12 AM,55.4,53.6,94,30.25,7.0,SSE,16.1,-,0.01,Rain,Light Rain,160,2013-09-13 10:12:00
4:39 AM,55.4,53.6,94,30.25,9.0,SSE,15.0,-,0.02,Rain,Light Rain,160,2013-09-13 10:39:00
4:53 AM,55.9,54.0,93,30.00,4.0,SSE,12.7,-,0.03,Rain,Light Rain,160,2013-09-13 10:53:00
5:53 AM,55.9,55.0,97,30.00,10.0,South,10.4,-,0.00,,Overcast,170,2013-09-13 11:53:00
6:07 AM,55.4,55.4,100,30.24,10.0,South,10.4,-,N/A,,Overcast,170,2013-09-13 12:07:00
6:53 AM,55.9,55.0,97,30.01,10.0,SSE,15.0,-,N/A,,Overcast,160,2013-09-13 12:53:00
7:38 AM,57.2,55.4,94,30.25,10.0,South,15.0,-,N/A,,Overcast,170,2013-09-13 13:38:00
7:49 AM,57.2,55.4,94,30.25,10.0,South,13.8,-,N/A,,Overcast,170,2013-09-13 13:49:00
7:53 AM,57.0,55.9,96,30.01,10.0,South,15.0,-,N/A,,Overcast,170,2013-09-13 13:53:00
8:06 AM,57.2,55.4,94,30.26,10.0,South,12.7,-,N/A,,Overcast,180,2013-09-13 14:06:00
8:53 AM,57.9,55.9,93,30.01,10.0,South,13.8,-,N/A,,Overcast,180,2013-09-13 14:53:00
9:02 AM,57.2,55.4,94,30.27,10.0,South,16.1,23.0,N/A,,Overcast,180,2013-09-13 15:02:00
9:19 AM,57.2,55.4,94,30.27,10.0,South,19.6,-,N/A,,Mostly Cloudy,180,2013-09-13 15:19:00
9:26 AM,57.2,55.4,94,30.27,10.0,South,18.4,-,N/A,,Overcast,180,2013-09-13 15:26:00
9:38 AM,57.2,55.4,94,30.27,10.0,SSW,20.7,24.2,N/A,,Overcast,200,2013-09-13 15:38:00
9:49 AM,59.0,55.4,88,30.28,10.0,SSW,20.7,26.5,N/A,,Mostly Cloudy,200,2013-09-13 15:49:00
9:53 AM,59.0,55.0,87,30.03,10.0,South,17.3,26.5,N/A,,Mostly Cloudy,190,2013-09-13 15:53:00
10:02 AM,59.0,55.4,88,30.28,10.0,South,16.1,25.3,N/A,,Mostly Cloudy,190,2013-09-13 16:02:00
10:28 AM,57.2,55.4,94,30.28,10.0,SSW,16.1,-,0.00,Rain,Light Rain,200,2013-09-13 16:28:00
10:36 AM,57.2,55.4,94,30.28,10.0,SSW,15.0,-,0.00,Rain,Light Rain,200,2013-09-13 16:36:00
10:53 AM,57.9,55.0,90,30.03,8.0,South,13.8,-,0.01,Rain,Light Rain,190,2013-09-13 16:53:00
11:50 AM,55.4,53.6,94,30.28,2.5,SW,20.7,26.5,0.05,Rain,Heavy Rain,220,2013-09-13 17:50:00
11:53 AM,54.0,52.0,93,30.05,2.5,SSW,17.3,26.5,0.06,Rain,Heavy Rain,210,2013-09-13 17:53:00
12:04 PM,53.6,51.8,94,30.28,5.0,SSW,18.4,25.3,0.01,Rain,Light Rain,210,2013-09-13 18:04:00
12:28 PM,55.4,53.6,94,30.27,10.0,SW,13.8,21.9,0.03,Rain,Light Rain,220,2013-09-13 18:28:00
12:53 PM,55.0,52.0,89,30.04,10.0,SSW,10.4,-,0.03,Rain,Light Rain,210,2013-09-13 18:53:00
1:53 PM,55.0,53.1,93,30.02,6.0,South,12.7,-,0.02,Rain,Light Rain,180,2013-09-13 19:53:00
2:03 PM,55.4,53.6,94,30.24,5.0,South,11.5,-,0.02,Rain,Light Rain,190,2013-09-13 20:03:00
2:18 PM,55.4,53.6,94,30.24,2.5,South,11.5,-,0.04,Rain,Rain,190,2013-09-13 20:18:00
2:23 PM,55.4,53.6,94,30.24,3.0,South,11.5,-,0.04,Rain,Light Rain,180,2013-09-13 20:23:00
2:48 PM,55.4,53.6,94,30.23,2.0,SSW,3.5,-,0.07,Rain,Rain,210,2013-09-13 20:48:00
2:49 PM,55.0,54.0,96,30.00,2.0,SW,3.5,-,0.08,Rain,Light Rain,220,2013-09-13 20:49:00
2:59 PM,55.4,53.6,94,30.22,4.0,South,4.6,-,0.00,Rain,Light Rain,180,2013-09-13 20:59:00
3:09 PM,55.4,53.6,94,30.22,9.0,South,11.5,-,0.00,Rain,Light Rain,180,2013-09-13 21:09:00
3:28 PM,55.4,53.6,94,30.22,10.0,South,8.1,-,0.00,Rain,Light Rain,180,2013-09-13 21:28:00
3:41 PM,55.4,53.6,94,30.22,1.8,South,5.8,-,0.03,Rain,Rain,190,2013-09-13 21:41:00
3:53 PM,55.0,54.0,96,29.99,2.5,SSW,4.6,-,0.05,Rain,Light Rain,200,2013-09-13 21:53:00
4:09 PM,55.4,53.6,94,30.22,6.0,SSW,6.9,-,0.00,Rain,Light Rain,200,2013-09-13 22:09:00
4:25 PM,55.4,53.6,94,30.21,10.0,South,10.4,-,0.00,,Overcast,190,2013-09-13 22:25:00
4:53 PM,55.9,54.0,93,29.97,10.0,South,10.4,-,0.00,,Overcast,190,2013-09-13 22:53:00
5:14 PM,55.4,53.6,94,30.20,10.0,SSW,12.7,-,N/A,,Overcast,200,2013-09-13 23:14:00
5:53 PM,55.9,54.0,93,29.96,10.0,SSW,16.1,-,N/A,,Mostly Cloudy,200,2013-09-13 23:53:00
6:00 PM,55.4,53.6,94,30.19,10.0,SSW,16.1,-,N/A,,Mostly Cloudy,200,2013-09-14 00:00:00
6:53 PM,55.9,54.0,93,29.95,10.0,SSW,11.5,-,N/A,,Clear,210,2013-09-14 00:53:00
7:53 PM,55.0,54.0,96,29.95,10.0,SW,8.1,-,N/A,,Clear,220,2013-09-14 01:53:00
8:53 PM,54.0,53.1,97,29.97,10.0,South,10.4,-,N/A,,Clear,190,2013-09-14 02:53:00
9:12 PM,53.6,53.6,100,30.21,2.5,South,10.4,-,0.01,,Partly Cloudy,170,2013-09-14 03:12:00
9:16 PM,53.6,53.6,100,30.21,1.0,SSE,9.2,-,0.01,,Mist,160,2013-09-14 03:16:00
9:20 PM,53.6,53.6,100,30.20,0.2,South,6.9,-,0.01,Fog,Fog,170,2013-09-14 03:20:00
9:40 PM,53.6,51.8,94,30.20,1.0,SSW,5.8,-,0.01,,Mist,200,2013-09-14 03:40:00
9:50 PM,51.8,51.8,100,30.20,1.8,South,6.9,-,0.01,,Scattered Clouds,170,2013-09-14 03:50:00
9:53 PM,53.1,52.0,96,29.96,1.8,South,5.8,-,0.01,,Partly Cloudy,170,2013-09-14 03:53:00
9:56 PM,53.6,51.8,94,30.20,4.0,South,6.9,-,N/A,,Partly Cloudy,170,2013-09-14 03:56:00
10:53 PM,53.1,53.1,100,29.98,7.0,South,6.9,-,N/A,,Clear,190,2013-09-14 04:53:00
11:53 PM,53.1,52.0,96,29.99,10.0,SSW,6.9,-,N/A,,Clear,210,2013-09-14 05:53:00